Location: Milano
(45.4670°N, 9.2000°E)
Time: 21:27:40
(UTC+02:00)

ISS - Pass Details

Date: 20 May 2021
Orbit: 417 x 422 km, 51.6° (Epoch: 14 June)

Event Time Altitude Azimuth Distance (km) Brightness Sun altitude
Rises 22:54:10 0° 282° (WNW) 2,364 0.8 -16.5°
Reaches altitude 10° 22:56:27 10° 294° (WNW) 1,502 0.0 -16.7°
Maximum altitude 22:59:25 28° 356° (N) 830 -1.6 -17.0°
Drops below altitude 10° 23:02:23 10° 57° (ENE) 1,505 -1.0 -17.3°
Enters shadow 23:04:03 - 67° (ENE) 2,126 -0.3 -17.5°
